Location: Cheyres
(46.8153°N, 6.7877°E)
Time: 13:57:04
(UTC+00:00)

SJ 16-02 - Pass Details

Date: 11 May 2021
Orbit: 606 x 616 km, 75.0° (Epoch: 18 June)

Event Time Altitude Azimuth Distance (km) Brightness Sun altitude
Exits shadow 21:19:29 19° 208° (SSW) 1,458 3.0 -18.8°
Maximum altitude 21:22:34 74° 292° (WNW) 646 1.5 -19.1°
Drops below altitude 10° 21:27:01 10° 17° (NNE) 1,989 4.5 -19.5°
Sets 21:29:16 0° 20° (NNE) 2,899 5.4 -19.7°
